Wetbulb
64.95 65.79 67.11 67.28 68.00 68.93 69.87 70.38 71.22 71.61 72.00 72.31 73.12 72.98 73.41 74.16 74.29 73.23 73.39 74.43 73.72 73.82 74.12 74.87 76.77 76.77 76.83 76.37 76.09 76.63 77.18 76.23 76.80
63.90 65.15 66.51 66.93 67.92 69.27 69.94 70.40 71.07 71.57 72.05 72.59 73.04 72.87 73.21 73.87 74.08 73.95 73.58 74.73 74.69 74.19 75.52 75.04 76.13 76.55 76.66 76.86 76.88 77.01 77.28 76.72 77.01
63.64 65.38 66.80 67.24 68.02 68.74 70.01 70.61 71.32 71.97 72.48 72.34 72.91 73.09 73.25 73.22 73.64 74.22 74.49 74.53 73.84 74.36 75.38 76.09 76.41 76.38 76.61 76.91 76.99 76.89 77.26 77.95 76.74
63.09 64.84 66.03 68.25 68.35 68.25 69.54 68.96 70.88 71.47 71.92 72.14 72.49 73.12 73.49 73.45 73.50 73.88 74.28 74.03 73.99 74.26 75.13 76.06 76.26 76.50 76.06 76.14 75.61 75.28 75.36 76.51 76.40
62.42 63.27 66.34 68.19 68.66 68.98 68.19 68.43 70.37 70.68 71.65 71.83 72.41 73.09 73.51 73.48 73.92 74.08 73.80 73.86 74.25 74.74 74.97 76.21 76.38 76.19 75.87 75.34 75.08 75.21 75.33 74.78 75.61
63.04 64.89 65.83 65.89 67.92 68.53 66.85 67.79 69.77 70.56 71.04 71.68 72.59 72.98 72.93 73.06 73.22 73.44 73.72 73.89 74.27 74.91 75.20 75.66 76.08 75.93 75.67 75.15 74.83 74.90 76.01 76.35 76.46
63.01 65.12 66.11 66.71 64.93 65.51 67.70 68.77 68.45 70.97 69.80 69.79 72.45 72.65 72.58 72.60 72.90 73.15 73.58 74.30 74.49 74.66 75.26 75.14 75.48 75.96 75.84 75.69 75.28 75.27 76.06 76.32 75.96
62.71 63.15 64.55 65.82 65.98 63.13 65.01 67.89 68.73 70.35 71.73 72.30 73.09 72.92 72.60 72.76 73.75 74.06 74.44 74.40 74.57 74.94 75.06 75.07 75.57 75.75 75.90 76.10 75.74 75.46 75.80 76.42 76.23
61.55 62.75 63.67 64.62 65.64 64.69 64.76 67.10 68.99 69.16 69.08 71.38 72.31 72.79 72.88 73.74 73.94 73.83 74.27 74.37 74.60 74.79 74.87 74.97 75.21 75.00 74.97 75.02 75.76 67.57 67.90 71.61 76.18
62.11 63.34 63.29 64.05 64.77 65.37 65.47 65.71 68.33 68.26 69.56 71.36 72.12 71.87 72.39 72.89 73.77 73.82 74.14 74.43 74.46 74.44 74.36 74.84 74.76 75.05 75.10 74.57 75.33 64.34 65.45 67.97 75.11
63.34 62.73 63.33 64.24 65.39 65.58 65.66 67.14 67.47 67.93 68.82 69.34 69.75 70.58 69.82 71.99 72.04 72.58 73.74 73.56 73.89 74.59 74.52 74.57 74.59 74.90 75.06 74.74 69.38 62.27 62.45 65.24 73.89
63.44 63.67 64.74 65.54 66.19 65.83 66.78 66.67 67.03 67.17 66.35 67.66 68.57 68.74 67.97 70.83 71.73 71.60 71.66 72.38 72.44 73.00 73.15 72.92 72.13 72.82 71.94 69.66 65.02 60.09 60.52 64.37 70.64
63.78 64.25 64.96 65.65 65.99 66.59 65.57 65.65 66.59 66.48 67.10 66.36 67.56 67.50 68.94 68.29 69.67 70.50 70.47 71.19 71.69 70.56 70.62 67.36 65.55 64.98 65.80 62.61 63.52 57.96 59.15 64.12 66.54
64.58 64.76 64.91 65.65 65.05 65.31 65.24 65.62 66.00 65.44 66.59 66.67 68.68 68.52 69.56 69.53 69.42 70.09 70.03 70.61 69.12 68.13 65.12 63.40 61.60 60.89 61.30 62.05 63.44 62.90 57.52 60.42 64.99
64.27 64.45 64.44 64.58 64.55 64.85 65.26 64.52 64.55 64.78 66.29 67.44 68.53 68.47 67.07 66.41 68.31 68.83 68.58 67.61 65.86 64.11 61.60 59.45 58.79 58.79 58.67 59.91 60.55 58.16 57.32 58.61 59.63
63.97 64.64 64.50 64.46 64.31 64.28 64.64 64.83 64.64 63.70 63.78 64.89 66.78 67.01 65.54 66.24 64.00 63.09 63.69 62.86 61.46 60.98 61.21 59.65 58.79 58.83 57.56 56.37 57.56 57.36 54.83 55.19 56.05
63.86 64.50 64.03 63.89 63.21 62.86 63.67 63.44 63.76 63.01 63.46 64.67 65.46 64.62 62.83 61.95 62.11 60.01 59.89 61.72 61.90 60.96 59.73 59.01 58.63 57.90 56.13 56.19 56.19 56.84 57.88 57.66 57.28
64.38 64.58 64.16 63.67 62.85 63.19 63.45 64.09 63.59 63.36 63.13 63.39 61.05 61.27 59.63 59.11 58.20 55.65 52.60 49.65 51.88 57.14 56.33 58.98 59.57 58.81 57.27 56.44 55.61 54.11 51.75 55.65 58.78
64.27 64.14 64.19 63.60 63.19 62.84 63.63 62.93 61.89 61.83 63.00 62.99 61.92 60.13 59.83 58.47 58.10 57.34 56.34 55.11 52.44 46.79 47.91 48.82 49.00 50.79 55.26 55.87 51.69 46.90 45.09 44.45 44.65
61.68 64.63 64.43 63.67 63.14 62.80 63.16 63.50 62.40 61.83 62.22 62.69 62.08 61.47 59.69 58.81 58.42 58.84 58.72 59.26 59.87 54.83 50.27 45.12 43.35 43.89 45.54 46.41 45.14 43.07 41.43 42.30 43.81
MSLP
1010.63 1010.45 1010.73 1010.80 1010.87 1011.33 1011.87 1012.38 1013.15 1013.70 1014.32 1014.92 1015.48 1016.05 1016.41 1016.81 1017.10 1017.16 1017.27 1017.41 1017.47 1017.62 1017.73 1017.73 1017.93 1018.25 1018.50 1018.73 1018.93 1018.95 1018.99 1019.02 1019.12
1010.63 1010.63 1010.59 1010.56 1011.00 1011.12 1011.50 1011.85 1012.48 1013.04 1013.64 1014.19 1014.78 1015.33 1015.95 1016.38 1016.74 1017.04 1016.95 1017.17 1017.37 1017.45 1017.74 1017.69 1017.77 1017.93 1018.16 1018.26 1018.43 1018.63 1018.72 1018.79 1018.91
1010.96 1010.91 1010.76 1010.68 1010.74 1010.94 1011.01 1011.45 1012.02 1012.74 1013.15 1013.59 1014.04 1014.62 1015.27 1015.68 1016.14 1016.52 1016.68 1017.03 1017.23 1017.39 1017.47 1017.53 1017.64 1017.78 1017.91 1017.98 1018.02 1018.19 1018.40 1018.61 1018.60
1011.20 1011.19 1011.16 1010.86 1010.71 1011.26 1011.17 1011.51 1011.69 1012.08 1012.64 1013.08 1013.51 1014.06 1014.49 1015.09 1015.48 1015.94 1016.41 1016.57 1016.90 1017.14 1017.26 1017.36 1017.48 1017.67 1017.80 1017.92 1018.01 1018.20 1018.38 1018.45 1018.40
1011.38 1011.50 1011.45 1011.13 1011.16 1011.54 1011.75 1011.60 1011.49 1011.54 1011.87 1012.32 1012.63 1013.18 1013.90 1014.34 1014.86 1015.29 1015.64 1016.11 1016.42 1016.73 1016.91 1017.10 1017.18 1017.42 1017.58 1017.66 1017.77 1018.03 1018.24 1018.19 1018.04
1011.36 1011.59 1011.33 1011.46 1011.62 1011.78 1012.10 1012.17 1012.09 1011.60 1011.56 1011.61 1011.96 1012.54 1013.03 1013.56 1014.00 1014.55 1014.75 1015.26 1015.77 1016.11 1016.44 1016.69 1016.87 1017.14 1017.29 1017.33 1017.46 1017.64 1017.73 1017.65 1017.73
1011.15 1011.41 1011.62 1011.56 1011.97 1012.40 1012.25 1011.97 1011.97 1011.59 1011.58 1011.65 1011.74 1012.04 1012.44 1012.73 1013.21 1013.52 1014.00 1014.43 1015.07 1015.50 1015.82 1016.10 1016.39 1016.67 1016.77 1016.88 1017.12 1017.26 1017.34 1017.32 1017.42
1011.22 1011.38 1011.86 1012.21 1012.22 1012.49 1012.53 1012.48 1012.23 1011.82 1011.66 1011.67 1011.53 1011.75 1012.07 1012.23 1012.69 1013.15 1013.54 1013.96 1014.43 1014.97 1015.34 1015.58 1015.85 1016.16 1016.49 1016.78 1017.04 1016.98 1017.00 1017.01 1017.17
1011.18 1011.37 1011.69 1012.18 1012.26 1012.65 1012.81 1012.58 1012.33 1012.52 1012.34 1012.02 1011.93 1011.85 1012.04 1012.24 1012.53 1012.88 1013.15 1013.56 1013.96 1014.27 1014.68 1015.05 1015.44 1015.77 1015.96 1016.27 1016.52 1016.71 1016.98 1017.14 1016.92
1011.07 1011.26 1011.54 1011.92 1012.24 1012.63 1012.94 1013.12 1012.83 1012.78 1012.54 1012.22 1012.10 1012.20 1012.29 1012.51 1012.46 1012.65 1012.88 1013.12 1013.47 1013.60 1014.01 1014.43 1014.78 1015.15 1015.46 1015.79 1016.23 1016.70 1016.78 1016.87 1016.78
1010.93 1011.30 1011.64 1011.80 1012.07 1012.40 1012.78 1012.90 1012.93 1012.72 1012.56 1012.47 1012.47 1012.39 1012.49 1012.48 1012.25 1012.36 1012.65 1012.75 1012.91 1013.28 1013.62 1014.02 1014.22 1014.62 1015.01 1015.50 1016.40 1016.83 1017.06 1017.19 1016.91
1010.96 1011.29 1011.63 1011.92 1012.07 1012.43 1012.47 1012.60 1012.81 1012.60 1012.63 1012.66 1012.42 1012.35 1012.56 1012.28 1012.37 1012.41 1012.60 1012.68 1012.89 1013.16 1013.26 1013.77 1014.29 1014.34 1015.00 1015.76 1016.68 1017.03 1017.18 1017.28 1017.23
1011.16 1011.39 1011.63 1011.87 1012.02 1012.46 1012.59 1012.61 1012.58 1012.30 1012.11 1012.30 1012.42 1012.34 1012.31 1012.41 1012.47 1012.51 1012.60 1012.65 1012.94 1013.51 1013.61 1013.89 1014.45 1015.06 1015.38 1015.94 1016.57 1016.92 1017.25 1017.37 1017.47
1011.22 1011.49 1011.72 1011.98 1012.28 1012.34 1012.50 1012.55 1012.55 1012.24 1012.20 1012.07 1012.20 1012.28 1011.72 1012.02 1011.59 1012.07 1012.31 1012.39 1012.96 1013.34 1013.79 1014.14 1014.49 1015.37 1016.08 1016.48 1016.83 1016.98 1017.27 1017.37 1017.77
1011.23 1011.60 1011.88 1012.02 1012.21 1012.32 1012.62 1012.70 1012.54 1012.23 1012.06 1011.98 1011.90 1011.86 1011.87 1011.47 1011.72 1011.97 1012.12 1012.37 1012.79 1013.21 1013.44 1013.99 1014.59 1015.39 1016.58 1017.10 1017.29 1017.40 1017.45 1017.46 1017.87
1011.15 1011.54 1011.85 1012.02 1012.15 1012.37 1012.68 1012.78 1012.54 1012.34 1012.35 1012.14 1012.03 1012.12 1012.51 1012.53 1012.44 1012.56 1012.51 1012.88 1013.25 1013.64 1013.91 1014.23 1014.97 1015.68 1016.70 1017.28 1018.16 1017.58 1017.55 1017.55 1018.45
1010.86 1011.32 1011.66 1011.94 1012.24 1012.42 1012.52 1012.78 1012.77 1012.76 1012.59 1012.54 1012.55 1012.61 1012.98 1013.41 1013.40 1013.48 1013.90 1013.82 1013.83 1014.20 1014.56 1014.82 1015.46 1016.17 1016.84 1017.73 1018.28 1018.29 1018.61 1018.61 1018.03
1010.60 1011.04 1011.50 1011.89 1012.11 1012.25 1012.26 1012.47 1012.68 1012.94 1012.78 1012.80 1012.91 1013.04 1013.30 1013.66 1013.98 1014.25 1014.78 1015.26 1015.16 1014.91 1015.29 1015.48 1015.69 1016.31 1016.94 1017.79 1018.23 1018.98 1019.20 1018.96 1019.13
1010.67 1010.99 1011.30 1011.66 1011.98 1012.19 1012.42 1012.64 1012.99 1013.02 1012.88 1012.97 1013.11 1013.39 1013.76 1014.05 1014.33 1014.98 1015.17 1015.47 1015.82 1016.34 1016.41 1016.28 1016.39 1016.89 1017.31 1018.24 1018.65 1019.29 1019.21 1019.31 1019.58
1010.48 1010.88 1011.20 1011.40 1011.67 1012.11 1012.51 1012.67 1012.90 1012.93 1013.12 1013.29 1013.45 1013.48 1014.03 1014.43 1014.54 1015.10 1015.43 1015.50 1015.98 1016.57 1017.47 1017.39 1017.54 1017.73 1017.89 1018.26 1018.92 1019.30 1019.71 1019.95 1019.84
Wind_Speed
6 9 11 14 17 16 16 17 16 16 15 15 14 13 14 12 11 7 8 7 5 5 5 5 5 7 7 7 6 5 5 5 4
4 4 7 13 13 15 15 16 17 17 16 15 15 16 13 12 11 10 8 7 6 5 5 5 6 6 6 6 6 6 6 5 5
4 6 7 9 11 14 13 15 14 14 15 16 16 15 14 12 13 11 9 7 8 7 6 6 6 7 7 6 6 6 6 5 5
5 8 10 11 10 9 12 9 12 13 14 15 14 15 14 14 13 12 11 9 8 9 7 7 7 7 6 6 6 6 7 7 7
4 7 8 7 3 3 5 8 12 14 14 15 16 15 14 15 14 13 12 11 10 9 8 8 8 7 7 6 6 5 7 9 6
6 5 4 4 3 5 3 3 8 13 13 16 15 15 15 14 15 14 14 13 12 11 9 8 8 8 9 8 7 7 8 7 6
4 3 5 3 4 6 6 6 5 6 9 9 13 14 15 15 15 16 14 13 12 11 11 10 10 9 9 7 7 7 8 7 7
3 2 2 4 3 3 7 4 4 6 6 7 11 13 13 13 13 12 11 11 12 11 11 10 10 9 8 8 8 7 9 8 7
5 5 3 4 4 1 3 5 1 2 2 1 4 9 10 10 10 11 12 12 11 10 10 10 10 11 10 10 6 4 6 9 6
6 4 4 3 1 2 4 5 3 4 5 2 2 4 4 7 8 10 11 10 10 11 11 10 10 11 10 10 9 3 4 7 7
5 4 3 3 3 3 2 2 2 3 5 5 4 4 4 6 7 8 9 10 10 9 8 9 9 8 8 5 4 5 5 2 4
3 3 2 2 2 4 4 4 4 2 2 4 6 8 5 6 6 7 8 9 8 6 6 5 4 4 6 8 6 4 2 3 4
5 3 4 3 2 2 5 4 5 5 5 4 7 4 10 9 10 11 11 11 9 5 4 6 6 6 7 8 7 4 1 3 5
6 5 4 3 2 2 4 5 5 6 6 5 4 5 5 9 7 11 10 10 5 7 7 8 9 8 6 6 4 5 3 6 5
8 7 6 4 2 2 3 3 4 5 5 3 3 4 5 5 3 3 3 7 6 8 10 11 10 10 5 3 4 4 6 9 7
8 8 6 4 2 1 3 4 3 2 2 3 1 5 5 5 7 6 5 6 7 6 7 8 7 7 5 5 3 3 10 13 11
9 9 7 5 4 2 1 2 3 1 1 1 2 4 5 5 6 8 6 5 4 5 5 6 6 6 6 5 3 4 3 4 10
9 9 8 6 4 2 1 1 1 3 1 2 4 6 5 5 5 6 6 6 5 4 5 3 6 6 7 7 6 2 1 4 6
8 9 7 7 5 4 2 3 1 1 1 2 5 5 4 4 5 4 5 5 7 17 11 10 11 11 8 4 9 9 8 9 10
8 9 11 10 8 5 4 3 3 1 1 2 3 6 5 4 4 4 5 5 7 8 9 17 15 11 11 9 11 9 7 8 9
Wind_Direction
278 245 232 221 214 206 204 203 204 202 200 207 203 207 218 220 228 227 227 220 217 215 225 227 191 203 215 215 220 228 233 241 245
282 279 251 229 219 220 204 204 204 205 204 207 204 207 213 219 222 223 226 228 211 212 226 225 223 222 234 229 226 228 230 240 245
319 333 319 252 222 218 216 211 208 209 213 212 211 209 212 213 218 223 224 227 227 228 234 220 213 227 237 237 228 225 242 244 254
336 328 330 314 241 209 217 207 215 212 214 218 216 214 213 216 214 216 222 220 224 228 233 225 222 220 225 224 219 220 242 257 260
329 327 334 335 296 276 205 224 224 218 218 219 219 217 213 213 213 213 218 224 221 221 226 226 227 220 216 219 219 235 240 243 256
280 301 323 45 251 246 285 283 263 237 224 225 223 216 215 215 216 215 216 221 228 216 215 229 237 228 227 224 225 234 241 251 251
239 251 307 352 2 327 325 322 313 279 244 228 224 215 218 215 215 215 218 212 219 224 217 218 230 238 239 234 228 237 244 239 253
222 248 321 333 9 333 317 301 337 337 265 231 224 223 222 224 225 224 221 215 211 218 219 225 230 233 240 238 233 240 242 239 237
230 279 313 324 8 162 288 291 354 46 33 294 229 223 229 232 225 224 217 215 214 208 219 223 223 231 237 248 245 273 237 257 239
229 248 288 289 28 305 217 256 266 308 329 358 121 186 219 229 217 222 222 214 212 206 209 215 221 233 234 241 248 177 216 221 247
198 231 253 255 218 224 237 268 231 305 276 269 271 247 183 206 203 209 210 203 199 201 202 214 216 226 236 228 117 83 59 355 224
189 189 186 251 253 247 262 287 298 302 304 264 250 258 267 251 225 184 175 173 167 168 161 179 215 181 154 138 122 107 125 224 123
166 169 175 195 181 253 280 298 290 299 299 290 270 236 236 240 234 229 231 238 236 189 146 131 121 98 104 120 124 73 192 226 129
168 173 177 173 205 276 301 297 290 263 270 269 279 309 319 236 216 234 235 234 173 157 143 122 98 94 89 100 111 96 160 154 133
171 171 181 199 247 322 313 306 268 243 241 308 325 19 36 25 200 205 166 143 126 129 127 118 118 109 97 66 99 110 95 115 118
179 182 183 199 252 294 351 338 310 248 342 324 97 77 50 50 80 45 69 119 123 120 120 120 127 127 128 102 352 91 89 102 116
182 184 185 181 196 248 68 32 341 356 333 200 155 102 69 52 59 65 44 64 77 103 105 113 112 119 103 101 96 75 89 114 86
191 181 177 179 191 228 6 74 0 345 312 136 102 111 102 86 83 85 81 54 29 65 50 70 129 132 134 140 128 137 50 123 134
182 180 177 182 186 200 183 131 98 11 338 176 149 115 116 108 108 102 102 98 78 45 52 65 84 99 131 92 99 136 118 97 98
180 182 184 188 190 190 183 157 146 94 127 175 175 132 137 121 112 129 137 138 131 114 69 63 51 72 83 96 131 112 99 107 118